�������l�o���
Date,Time,MP-1(��Sv/h),MP-2(��Sv/h),MP-3(��Sv/h),MP-4(��Sv/h),MP-5(��Sv/h),MP-6(��Sv/h),MP-7(��Sv/h),MP-8(��Sv/h),����,����(m/s),���J
2019/06/14,00:00,0.751,1.081,0.733,1.332,0.976,0.434,0.751,0.712,��,5.4,��
2019/06/14,00:10,0.747,1.079,0.733,1.330,0.977,0.433,0.751,0.710,��쐼,5.3,��
2019/06/14,00:20,0.748,1.078,0.733,1.331,0.978,0.432,0.751,0.712,��,5.4,��
2019/06/14,00:30,0.747,1.079,0.732,1.331,0.979,0.433,0.752,0.712,��,4.7,��
2019/06/14,00:40,0.749,1.080,0.733,1.332,0.977,0.434,0.752,0.712,��,4.1,��
2019/06/14,00:50,0.747,1.080,0.733,1.330,0.977,0.432,0.750,0.710,��,3.5,��
2019/06/14,01:00,0.748,1.077,0.730,1.334,0.979,0.433,0.752,0.711,��,3.8,��
2019/06/14,01:10,0.748,1.077,0.731,1.332,0.977,0.433,0.750,0.712,��,4.9,��
2019/06/14,01:20,0.747,1.077,0.733,1.331,0.978,0.432,0.753,0.710,��쐼,4.8,��
2019/06/14,01:30,0.747,1.078,0.732,1.330,0.976,0.432,0.751,0.711,��,4.5,��
2019/06/14,01:40,0.746,1.077,0.732,1.331,0.980,0.432,0.751,0.711,��,4.3,��
2019/06/14,01:50,0.746,1.078,0.731,1.332,0.978,0.433,0.752,0.711,��쐼,4.1,��
2019/06/14,02:00,0.748,1.079,0.734,1.331,0.977,0.433,0.751,0.713,��,4.1,��
2019/06/14,02:10,0.749,1.079,0.733,1.330,0.978,0.432,0.753,0.712,��,3.9,��
2019/06/14,02:20,0.746,1.078,0.733,1.330,0.977,0.433,0.751,0.711,��,4.1,��
2019/06/14,02:30,0.747,1.077,0.732,1.330,0.977,0.433,0.751,0.711,��,3.9,��
2019/06/14,02:40,0.747,1.077,0.733,1.331,0.977,0.433,0.750,0.712,��,5.4,��
2019/06/14,02:50,0.747,1.075,0.732,1.332,0.979,0.433,0.752,0.711,��,3.8,��
2019/06/14,03:00,0.747,1.079,0.730,1.332,0.975,0.433,0.751,0.712,��,3.3,��
2019/06/14,03:10,0.748,1.076,0.734,1.333,0.977,0.431,0.751,0.711,��,2.6,��
2019/06/14,03:20,0.748,1.077,0.733,1.332,0.977,0.432,0.751,0.713,��,2.8,��
2019/06/14,03:30,0.748,1.079,0.733,1.333,0.978,0.432,0.752,0.711,��쐼,2.0,��
2019/06/14,03:40,0.746,1.076,0.731,1.333,0.977,0.433,0.751,0.712,��쐼,1.7,��
2019/06/14,03:50,0.748,1.080,0.733,1.332,0.976,0.433,0.752,0.710,��쐼,1.7,��
2019/06/14,04:00,0.747,1.078,0.730,1.331,0.977,0.432,0.752,0.713,�쐼,1.4,��
2019/06/14,04:10,0.747,1.077,0.731,1.332,0.977,0.432,0.753,0.710,�쐼,1.7,��
2019/06/14,04:20,0.746,1.077,0.732,1.331,0.976,0.433,0.752,0.712,��쐼,1.1,��
2019/06/14,04:30,0.746,1.076,0.733,1.330,0.977,0.431,0.751,0.710,��,0.9,��
2019/06/14,04:40,0.746,1.078,0.733,1.333,0.975,0.432,0.751,0.712,�k��,1.2,��
2019/06/14,04:50,0.749,1.076,0.732,1.333,0.975,0.434,0.752,0.713,�k�k��,1.2,��
2019/06/14,05:00,0.748,1.073,0.734,1.331,0.977,0.431,0.753,0.711,�k�k��,1.7,��
2019/06/14,05:10,0.749,1.076,0.733,1.331,0.977,0.432,0.752,0.714,�k�k��,0.9,��
2019/06/14,05:20,0.747,1.077,0.732,1.329,0.979,0.432,0.750,0.711,�k,0.9,��
2019/06/14,05:30,0.748,1.076,0.732,1.330,0.977,0.432,0.752,0.711,�k�k��,1.2,��
2019/06/14,05:40,0.748,1.076,0.733,1.330,0.975,0.432,0.752,0.711,�k�k��,1.2,��
2019/06/14,05:50,0.747,1.077,0.732,1.331,0.977,0.434,0.753,0.712,�k�k��,0.6,��
2019/06/14,06:00,0.747,1.078,0.732,1.332,0.976,0.430,0.752,0.711,�k,0.9,��
2019/06/14,06:10,0.748,1.076,0.732,1.331,0.978,0.431,0.753,0.713,�k,1.1,��
2019/06/14,06:20,0.747,1.076,0.731,1.333,0.977,0.430,0.753,0.712,�k�k��,0.9,��
2019/06/14,06:30,0.750,1.077,0.733,1.329,0.975,0.431,0.753,0.711,�k,0.6,��
2019/06/14,06:40,0.749,1.075,0.731,1.328,0.975,0.431,0.754,0.713,��,0.6,��
2019/06/14,06:50,0.748,1.075,0.731,1.329,0.975,0.430,0.753,0.713,��쓌,0.6,�L
2019/06/14,07:00,0.747,1.076,0.732,1.328,0.977,0.430,0.751,0.713,�쓌,0.6,��
2019/06/14,07:10,0.748,1.076,0.733,1.330,0.978,0.428,0.753,0.713,-,CALM,��
2019/06/14,07:20,0.747,1.073,0.733,1.330,0.979,0.429,0.753,0.712,��쓌,0.9,��
2019/06/14,07:30,0.746,1.071,0.733,1.331,0.976,0.428,0.752,0.712,��쓌,1.1,��
2019/06/14,07:40,0.748,1.073,0.733,1.333,0.977,0.430,0.750,0.713,��쓌,2.0,��
2019/06/14,07:50,0.748,1.074,0.733,1.332,0.977,0.429,0.749,0.712,��,1.4,��
2019/06/14,08:00,0.749,1.072,0.734,1.329,0.977,0.430,0.751,0.710,��쓌,2.2,��
2019/06/14,08:10,0.748,1.076,0.732,1.330,0.979,0.429,0.751,0.709,��쓌,3.3,��
2019/06/14,08:20,0.747,1.075,0.732,1.332,0.978,0.429,0.751,0.710,��쓌,2.3,��
2019/06/14,08:30,0.750,1.078,0.732,1.332,0.977,0.429,0.751,0.710,��쓌,3.5,��
2019/06/14,08:40,0.747,1.075,0.733,1.332,0.979,0.432,0.749,0.710,��쓌,6.8,��
2019/06/14,08:50,0.750,1.078,0.730,1.332,0.978,0.432,0.752,0.709,��쓌,8.9,��
2019/06/14,09:00,0.749,1.076,0.733,1.333,0.978,0.432,0.752,0.712,��,8.0,��
2019/06/14,09:10,0.748,1.079,0.732,1.334,0.977,0.432,0.752,0.709,��,8.7,��
2019/06/14,09:20,0.751,1.077,0.733,1.330,0.977,0.430,0.751,0.711,��쓌,10.2,��
2019/06/14,09:30,0.749,1.078,0.732,1.331,0.976,0.432,0.752,0.711,��쓌,10.7,��
2019/06/14,09:40,0.751,1.078,0.731,1.331,0.978,0.433,0.753,0.711,��,11.0,��
2019/06/14,09:50,0.752,1.079,0.730,1.333,0.981,0.431,0.753,0.710,��,12.7,��
2019/06/14,10:00,0.750,1.076,0.732,1.332,0.978,0.433,0.753,0.711,��쓌,13.1,��
2019/06/14,10:10,0.750,1.081,0.732,1.335,0.980,0.432,0.753,0.710,��쓌,13.8,��
2019/06/14,10:20,0.750,1.078,0.734,1.335,0.980,0.431,0.751,0.711,��쓌,13.1,��
2019/06/14,10:30,0.753,1.079,0.734,1.333,0.979,0.433,0.752,0.711,��쓌,14.9,��
2019/06/14,10:40,0.751,1.080,0.735,1.334,0.981,0.433,0.753,0.711,��쓌,13.8,��
2019/06/14,10:50,0.753,1.083,0.734,1.337,0.983,0.434,0.751,0.712,��쓌,14.2,��
2019/06/14,11:00,0.751,1.083,0.734,1.334,0.980,0.433,0.752,0.712,��쓌,14.7,��
2019/06/14,11:10,0.752,1.081,0.735,1.333,0.981,0.433,0.752,0.710,��쓌,14.7,��
2019/06/14,11:20,0.752,1.081,0.734,1.330,0.982,0.434,0.753,0.712,��쓌,13.6,��
2019/06/14,11:30,0.752,1.087,0.734,1.332,0.984,0.433,0.754,0.712,��쓌,13.8,��
2019/06/14,11:40,0.752,1.082,0.735,1.334,0.984,0.434,0.754,0.711,��쓌,14.9,��
2019/06/14,11:50,0.754,1.082,0.736,1.335,0.984,0.436,0.752,0.711,��쓌,13.8,��
2019/06/14,12:00,0.753,1.083,0.736,1.334,0.984,0.434,0.752,0.711,��쓌,14.9,��
2019/06/14,12:10,0.754,1.084,0.735,1.336,0.983,0.434,0.751,0.711,��쓌,15.8,��
2019/06/14,12:20,0.753,1.082,0.736,1.335,0.985,0.435,0.753,0.713,��쓌,15.5,��
2019/06/14,12:30,0.753,1.087,0.736,1.333,0.986,0.434,0.754,0.711,��쓌,14.9,��
2019/06/14,12:40,0.754,1.087,0.737,1.333,0.987,0.435,0.752,0.712,��,14.2,��
2019/06/14,12:50,0.754,1.085,0.737,1.335,0.987,0.434,0.754,0.710,��쓌,16.4,��
2019/06/14,13:00,0.753,1.085,0.738,1.337,0.987,0.435,0.753,0.712,��,16.1,��
2019/06/14,13:10,0.753,1.086,0.738,1.334,0.987,0.435,0.754,0.711,��쓌,15.2,��
2019/06/14,13:20,0.752,1.084,0.735,1.336,0.986,0.433,0.754,0.714,��쓌,17.4,��
2019/06/14,13:30,0.755,1.085,0.737,1.336,0.988,0.434,0.753,0.712,��쓌,17.7,��
2019/06/14,13:40,0.753,1.084,0.736,1.336,0.988,0.436,0.754,0.714,��쓌,16.1,��
2019/06/14,13:50,0.755,1.083,0.737,1.337,0.989,0.435,0.754,0.713,��쓌,14.6,��
2019/06/14,14:00,0.756,1.081,0.737,1.337,0.990,0.436,0.753,0.712,��쓌,14.4,��
2019/06/14,14:10,0.755,1.085,0.738,1.337,0.988,0.436,0.753,0.712,��쓌,13.3,��
2019/06/14,14:20,0.753,1.087,0.738,1.338,0.988,0.436,0.755,0.712,��쓌,15.8,��
2019/06/14,14:30,0.754,1.086,0.739,1.339,0.991,0.435,0.753,0.712,��쓌,16.3,��
2019/06/14,14:40,0.755,1.085,0.739,1.338,0.990,0.434,0.755,0.712,��,12.1,��
2019/06/14,14:50,0.757,1.086,0.737,1.338,0.991,0.434,0.753,0.713,��쓌,15.5,��
2019/06/14,15:00,0.756,1.087,0.739,1.339,0.992,0.434,0.754,0.711,��쓌,13.8,��
2019/06/14,15:10,0.756,1.088,0.738,1.337,0.989,0.436,0.753,0.713,��,14.1,��
2019/06/14,15:20,0.756,1.089,0.738,1.340,0.990,0.435,0.754,0.713,��쓌,13.0,��
2019/06/14,15:30,0.755,1.088,0.736,1.337,0.991,0.435,0.755,0.713,��,13.0,��
2019/06/14,15:40,0.755,1.089,0.738,1.340,0.990,0.434,0.754,0.713,��,12.2,��
2019/06/14,15:50,0.754,1.089,0.740,1.338,0.991,0.434,0.753,0.712,��쓌,12.0,��
2019/06/14,16:00,0.757,1.089,0.737,1.339,0.989,0.434,0.754,0.711,��,11.3,��
2019/06/14,16:10,0.755,1.091,0.739,1.340,0.991,0.435,0.754,0.713,��,11.6,��
2019/06/14,16:20,0.754,1.089,0.738,1.338,0.991,0.435,0.754,0.713,��쓌,11.8,��
2019/06/14,16:30,0.757,1.091,0.735,1.340,0.990,0.435,0.753,0.713,��쓌,10.7,��
2019/06/14,16:40,0.756,1.090,0.737,1.339,0.991,0.435,0.754,0.712,��,11.3,��
2019/06/14,16:50,0.756,1.091,0.738,1.343,0.990,0.433,0.752,0.712,��,10.2,��
2019/06/14,17:00,0.755,1.090,0.739,1.340,0.990,0.435,0.754,0.713,��,9.0,��
2019/06/14,17:10,0.756,1.089,0.738,1.341,0.987,0.434,0.751,0.713,��,10.0,��
2019/06/14,17:20,0.756,1.090,0.738,1.342,0.992,0.436,0.753,0.710,��,9.6,��
2019/06/14,17:30,0.756,1.090,0.738,1.341,0.992,0.435,0.754,0.712,��,8.3,��
2019/06/14,17:40,0.757,1.089,0.737,1.342,0.990,0.434,0.752,0.714,��,6.3,��
2019/06/14,17:50,0.756,1.091,0.738,1.344,0.991,0.434,0.753,0.711,��,7.6,��
2019/06/14,18:00,0.754,1.092,0.737,1.339,0.990,0.434,0.753,0.712,��,8.1,��
2019/06/14,18:10,0.759,1.091,0.739,1.344,0.991,0.434,0.755,0.713,��,7.4,��
2019/06/14,18:20,0.755,1.091,0.740,1.343,0.990,0.434,0.755,0.714,��,8.7,��
2019/06/14,18:30,0.754,1.090,0.738,1.343,0.990,0.434,0.756,0.715,��,8.7,��
2019/06/14,18:40,0.758,1.093,0.740,1.343,0.989,0.435,0.755,0.715,��,9.2,��
2019/06/14,18:50,0.755,1.091,0.740,1.347,0.992,0.434,0.755,0.715,��,8.1,��
2019/06/14,19:00,0.756,1.093,0.742,1.345,0.991,0.435,0.756,0.716,��,8.0,��
2019/06/14,19:10,0.755,1.091,0.742,1.344,0.991,0.435,0.757,0.715,��,9.2,��
2019/06/14,19:20,0.756,1.094,0.742,1.346,0.991,0.435,0.756,0.717,��,7.6,��
2019/06/14,19:30,0.756,1.094,0.741,1.346,0.993,0.434,0.754,0.715,��,7.8,��
2019/06/14,19:40,0.756,1.092,0.744,1.345,0.992,0.436,0.755,0.715,��,8.8,��
2019/06/14,19:50,0.755,1.093,0.742,1.348,0.993,0.433,0.755,0.716,��,9.4,��
2019/06/14,20:00,0.757,1.092,0.742,1.345,0.992,0.434,0.756,0.713,��,9.2,��
2019/06/14,20:10,0.757,1.092,0.743,1.346,0.994,0.434,0.756,0.717,��,9.4,��
2019/06/14,20:20,0.755,1.093,0.743,1.345,0.989,0.434,0.754,0.714,��,8.8,��
2019/06/14,20:30,0.757,1.093,0.742,1.347,0.991,0.433,0.757,0.716,��,9.5,��
2019/06/14,20:40,0.755,1.094,0.743,1.345,0.992,0.435,0.755,0.716,��,9.1,��
2019/06/14,20:50,0.757,1.093,0.741,1.344,0.990,0.435,0.754,0.716,��,8.3,��
2019/06/14,21:00,0.757,1.092,0.742,1.346,0.990,0.435,0.756,0.715,��,8.5,��
2019/06/14,21:10,0.756,1.092,0.741,1.345,0.992,0.435,0.756,0.715,��,7.3,��
2019/06/14,21:20,0.756,1.093,0.742,1.343,0.988,0.435,0.755,0.714,��,7.3,��
2019/06/14,21:30,0.757,1.092,0.740,1.345,0.988,0.436,0.755,0.716,��,6.4,��
2019/06/14,21:40,0.756,1.094,0.743,1.345,0.990,0.436,0.756,0.713,��,7.1,��
2019/06/14,21:50,0.756,1.095,0.743,1.345,0.989,0.434,0.755,0.714,��,9.1,��
2019/06/14,22:00,0.758,1.095,0.742,1.345,0.991,0.437,0.755,0.715,��,7.9,��
2019/06/14,22:10,0.757,1.095,0.742,1.346,0.992,0.434,0.757,0.715,��,8.6,��
2019/06/14,22:20,0.757,1.097,0.743,1.345,0.992,0.436,0.755,0.715,��,7.7,��
2019/06/14,22:30,0.757,1.093,0.741,1.346,0.990,0.435,0.756,0.717,��,8.6,��
2019/06/14,22:40,0.755,1.096,0.741,1.348,0.991,0.435,0.755,0.716,��,7.4,��
2019/06/14,22:50,0.756,1.092,0.742,1.345,0.992,0.436,0.755,0.715,��,7.7,��
2019/06/14,23:00,0.757,1.094,0.743,1.345,0.993,0.437,0.756,0.716,��,7.6,��
2019/06/14,23:10,0.755,1.095,0.743,1.344,0.994,0.436,0.756,0.715,��,6.5,��
2019/06/14,23:20,0.756,1.094,0.741,1.344,0.995,0.435,0.756,0.716,��,7.9,��
2019/06/14,23:30,0.757,1.096,0.742,1.344,0.994,0.434,0.757,0.716,��,8.1,��
2019/06/14,23:40,0.756,1.095,0.743,1.345,0.992,0.434,0.754,0.713,��,7.2,��
2019/06/14,23:50,0.756,1.096,0.743,1.345,0.993,0.438,0.756,0.715,��,7.5,��
